GW4332 Weather Reports


time (UTC)temp
F
wind
direction
speed
knots
gust
knots
rain 1hr
in
rain 24hr
in
rain mn
in
humidity
%
barometer
mb
20260508073030 52 90 5.2 15.6 0.00 0.00 0.00 76 1018.9
20260508072029 52 103 1.7 13.0 0.00 0.00 0.00 77 1019.1
20260508071030 51 139 1.7 13.0 0.00 0.00 0.00 77 1019.0
20260508070030 51 188 0.9 12.2 0.00 0.00 0.00 78 1019.0
20260508065030 51 77 1.7 12.2 0.00 0.00 0.00 79 1018.9
20260508064030 51 116 3.5 11.3 0.00 0.00 0.00 80 1018.9
20260508063030 50 150 0.9 8.7 0.00 0.00 0.00 81 1018.8
20260508062030 50 52 0.9 7.8 0.00 0.00 0.00 82 1018.7
20260508061030 50 97 1.7 9.6 0.00 0.00 0.00 82 1018.6
20260508060029 50 87 2.6 10.4 0.00 0.00 0.00 83 1018.5
20260508055030 50 84 1.7 10.4 0.00 0.00 0.00 83 1018.4
20260508054029 49 97 0.0 10.4 0.00 0.00 0.00 83 1018.3
20260508053030 49 278 0.0 6.1 0.00 0.00 0.00 84 1018.2
20260508052029 49 115 0.9 10.4 0.00 0.00 0.00 85 1018.2
20260508051029 49 138 0.9 10.4 0.00 0.00 0.00 84 1018.1
20260508050030 49 108 0.9 9.6 0.00 0.00 0.00 85 1018.1
20260508045029 48 81 0.9 9.6 0.00 0.00 0.00 85 1018.1
20260508044030 48 199 1.7 7.8 0.00 0.00 0.00 85 1018.1
20260508043029 48 108 0.0 7.8 0.00 0.00 0.00 84 1018.0
20260508042030 48 74 0.9 7.8 0.00 0.00 0.00 84 1018.0
20260508041030 48 183 0.0 7.8 0.00 0.00 0.00 84 1017.9
20260508040030 48 91 0.9 6.1 0.00 0.00 0.00 84 1017.9
20260508035030 48 91 0.9 7.0 0.00 0.00 0.00 83 1018.0
20260508034029 49 99 1.7 7.8 0.00 0.00 0.00 83 1018.0
20260508033030 49 71 0.9 6.1 0.00 0.00 0.00 83 1017.9
20260508032030 49 102 1.7 6.1 0.00 0.00 0.00 82 1017.9
20260508031030 49 107 0.9 7.0 0.00 0.00 0.00 82 1017.8
20260508030030 49 130 0.0 8.7 0.00 0.00 0.00 82 1017.8
20260508025030 49 356 0.0 7.0 0.00 0.00 0.00 82 1017.8
20260508024029 49 120 0.9 7.8 0.00 0.00 0.00 81 1017.8
20260508023030 49 86 1.7 9.6 0.00 0.00 0.00 81 1017.8
20260508022029 49 136 0.9 8.7 0.00 0.00 0.00 81 1017.8
20260508021029 49 115 1.7 10.4 0.00 0.00 0.00 81 1017.8
20260508020030 50 106 1.7 9.6 0.00 0.00 0.00 80 1017.6
20260508015029 50 124 1.7 8.7 0.00 0.00 0.00 80 1017.7
20260508014030 50 142 1.7 8.7 0.00 0.00 0.00 79 1017.8
20260508013030 50 136 1.7 9.6 0.00 0.00 0.00 79 1017.8
20260508012030 50 144 0.9 12.2 0.00 0.00 0.00 79 1017.8
20260508011029 50 120 1.7 10.4 0.00 0.00 0.00 78 1017.9
20260508010030 50 115 2.6 9.6 0.00 0.00 0.00 78 1018.0
20260508005030 50 120 1.7 10.4 0.00 0.00 0.00 78 1018.0
20260508004030 50 143 1.7 7.8 0.00 0.00 0.00 78 1017.8
20260508003029 50 127 1.7 7.8 0.00 0.00 0.00 77 1017.9
20260508002030 50 102 1.7 7.0 0.00 0.00 0.00 77 1017.9
20260508001029 51 123 1.7 7.8 0.00 0.00 0.00 76 1017.9
20260508000030 51 117 1.7 8.7 0.00 0.00 0.00 75 1017.8
20260507235030 51 129 0.9 7.8 0.00 0.00 0.00 75 1017.9
20260507234029 51 123 0.9 6.1 0.00 0.00 0.00 74 1017.9
20260507233030 51 105 0.9 7.8 0.00 0.00 0.00 74 1017.9
20260507232029 52 88 1.7 8.7 0.00 0.00 0.00 73 1017.9
20260507231030 52 136 1.7 8.7 0.00 0.00 0.00 73 1017.9
20260507230030 52 267 0.9 11.3 0.00 0.00 0.00 72 1017.9
20260507225029 53 95 1.7 10.4 0.00 0.00 0.00 71 1017.9
20260507224030 53 139 1.7 10.4 0.00 0.00 0.00 71 1017.8
20260507223029 53 135 1.7 10.4 0.00 0.00 0.00 70 1017.9
20260507222030 54 89 3.5 11.3 0.00 0.00 0.00 69 1017.9
20260507221030 54 126 1.7 11.3 0.00 0.00 0.00 69 1017.8
20260507220029 55 93 5.2 11.3 0.00 0.00 0.00 69 1017.8
20260507215030 55 110 2.6 9.6 0.00 0.00 0.00 68 1017.8
20260507214029 55 107 3.5 8.7 0.00 0.00 0.00 68 1017.8
20260507213030 55 183 0.9 8.7 0.00 0.00 0.00 68 1017.8
20260507212030 55 132 2.6 10.4 0.00 0.00 0.00 68 1017.7
20260507211030 56 132 2.6 11.3 0.00 0.00 0.00 69 1017.7
20260507210029 56 124 1.7 11.3 0.00 0.00 0.00 70 1017.7
20260507205030 56 101 4.3 9.6 0.00 0.00 0.00 70 1017.7
20260507204029 55 107 4.3 8.7 0.00 0.00 0.00 70 1017.6
20260507203030 55 87 4.3 7.8 0.00 0.00 0.00 69 1017.5
20260507202029 55 80 5.2 8.7 0.00 0.00 0.00 69 1017.5
20260507201030 56 78 4.3 7.8 0.00 0.00 0.00 69 1017.2
20260507200029 56 69 4.3 10.4 0.00 0.00 0.00 68 1017.1
20260507195030 56 59 4.3 8.7 0.00 0.00 0.00 68 1017.1
20260507194029 56 66 4.3 7.8 0.00 0.00 0.00 67 1017.0
20260507193030 56 52 5.2 8.7 0.00 0.00 0.00 66 1016.9
20260507192030 57 45 5.2 9.6 0.00 0.00 0.00 66 1016.8
20260507191029 57 37 7.0 10.4 0.00 0.00 0.00 64 1016.8
20260507190029 57 45 7.0 10.4 0.00 0.00 0.00 62 1016.7
20260507185030 58 38 7.0 10.4 0.00 0.00 0.00 61 1016.6
20260507184030 58 43 7.0 10.4 0.00 0.00 0.00 61 1016.5
20260507183029 58 47 7.0 12.2 0.00 0.00 0.00 62 1016.4
20260507182030 58 36 5.2 9.6 0.00 0.00 0.00 66 1016.4
20260507181029 58 33 7.0 13.0 0.00 0.00 0.00 65 1016.3
20260507180030 58 38 5.2 11.3 0.00 0.00 0.00 65 1016.3
20260507175029 59 23 5.2 10.4 0.00 0.00 0.00 62 1016.3
20260507174030 59 28 7.0 12.2 0.00 0.00 0.00 60 1016.3
20260507173030 59 23 6.1 10.4 0.00 0.00 0.00 58 1016.1
20260507172029 59 357 6.1 11.3 0.00 0.00 0.00 59 1016.1
20260507171030 59 20 6.1 9.6 0.00 0.00 0.00 58 1016.3
20260507170029 60 353 7.8 11.3 0.00 0.00 0.00 59 1016.2
20260507165029 60 352 5.2 8.7 0.00 0.00 0.00 57 1016.1
20260507164030 60 344 7.0 9.6 0.00 0.00 0.00 57 1016.1
20260507163030 60 336 6.1 8.7 0.00 0.00 0.00 57 1016.1
20260507162029 60 349 6.1 9.6 0.00 0.00 0.00 57 1016.1
20260507161030 60 15 6.1 10.4 0.00 0.00 0.00 57 1016.0
20260507160029 60 352 5.2 10.4 0.00 0.00 0.00 57 1016.0
20260507155030 60 356 5.2 9.6 0.00 0.00 0.00 56 1016.0
20260507154030 60 348 7.0 11.3 0.00 0.00 0.00 58 1016.1
20260507153030 60 340 7.8 10.4 0.00 0.00 0.00 57 1016.1
20260507152029 60 343 7.8 10.4 0.00 0.00 0.00 57 1016.1
20260507151030 60 335 7.8 11.3 0.00 0.00 0.00 61 1016.0
20260507150030 60 327 9.6 13.0 0.00 0.00 0.00 58 1016.1
20260507145029 60 336 9.6 13.0 0.00 0.00 0.00 64 1016.0
20260507144030 60 327 9.6 12.2 0.00 0.00 0.00 66 1016.1
20260507143029 60 325 10.4 13.0 0.00 0.00 0.00 69 1016.2
20260507142030 59 323 10.4 12.2 0.00 0.00 0.00 68 1016.0
20260507141029 59 324 11.3 13.0 0.00 0.00 0.00 69 1016.1
20260507140030 59 320 11.3 13.9 0.00 0.00 0.00 70 1016.1
20260507135029 59 327 11.3 13.9 0.00 0.00 0.00 71 1016.1
20260507134030 59 324 11.3 13.9 0.00 0.00 0.00 72 1016.1
20260507133030 58 325 11.3 13.9 0.00 0.00 0.00 73 1016.2
20260507132030 58 318 10.4 13.0 0.00 0.00 0.00 73 1016.1
20260507131030 58 327 10.4 13.9 0.00 0.00 0.00 73 1016.0
20260507130030 58 320 10.4 13.0 0.00 0.00 0.00 74 1016.1
20260507125030 58 319 10.4 13.0 0.00 0.00 0.00 73 1016.1
20260507124030 57 317 11.3 13.9 0.00 0.00 0.00 74 1016.1
20260507123030 57 323 11.3 13.9 0.00 0.00 0.00 74 1016.2
20260507122029 56 322 11.3 13.0 0.00 0.00 0.00 75 1016.1
20260507121030 56 323 11.3 13.9 0.00 0.00 0.00 75 1016.1
20260507120030 56 323 10.4 12.2 0.00 0.00 0.00 74 1016.1
20260507115030 56 322 9.6 12.2 0.00 0.00 0.00 75 1016.1
20260507114029 55 329 9.6 13.0 0.00 0.00 0.00 75 1016.1
20260507113030 55 323 9.6 12.2 0.00 0.00 0.00 75 1016.1
20260507112029 55 324 10.4 12.2 0.00 0.00 0.00 76 1016.1
20260507111029 55 321 9.6 12.2 0.00 0.00 0.00 76 1016.1
20260507110030 55 320 9.6 12.2 0.00 0.00 0.00 74 1016.2
20260507105029 54 334 8.7 10.4 0.00 0.00 0.00 72 1016.1
20260507104030 54 339 7.8 10.4 0.00 0.00 0.00 72 1016.2
20260507103030 54 324 7.8 10.4 0.00 0.00 0.00 74 1016.3
20260507102031 53 320 7.8 10.4 0.00 0.00 0.00 75 1016.2
20260507101029 53 328 7.8 10.4 0.00 0.00 0.00 75 1016.1
20260507100030 53 334 7.8 10.4 0.00 0.00 0.00 75 1016.1
20260507095029 52 331 7.8 9.6 0.00 0.00 0.00 76 1016.0
20260507094030 52 337 7.0 10.4 0.00 0.00 0.00 77 1016.0
20260507093030 52 332 6.1 10.4 0.00 0.00 0.00 76 1015.9
20260507092029 51 349 5.2 9.6 0.00 0.00 0.00 77 1015.9
20260507091029 51 348 6.1 11.3 0.00 0.00 0.00 77 1015.9
20260507090030 51 343 6.1 10.4 0.00 0.00 0.00 78 1015.8
20260507085029 51 336 7.0 9.6 0.00 0.00 0.00 78 1015.7
20260507084030 51 347 5.2 8.7 0.00 0.00 0.00 78 1015.7
20260507083030 50 338 6.1 8.7 0.00 0.00 0.00 78 1015.7
20260507082029 50 325 6.1 9.6 0.00 0.00 0.00 78 1015.6
20260507081030 51 332 5.2 8.7 0.00 0.00 0.00 78 1015.6
20260507080030 51 348 4.3 8.7 0.00 0.00 0.00 77 1015.6
20260507075030 51 346 5.2 8.7 0.00 0.00 0.00 76 1015.5
20260507074029 51 21 5.2 8.7 0.00 0.00 0.00 75 1015.4